Flag for Brazil Weather past 2 weeks in Vitória, Espírito Santo, Brazil

Now
68 °F

Passing clouds.


Feels Like: 68 °F
Forecast: 77 / 88 °F
Wind: 3 mph from East

Location: Belo Horizonte Airport

Current Time: Dec 21, 2014 at 7:16:16 AM

Latest Report: Dec 21, 2014 at 7:00 AM


Visibility: N/A

Pressure: 30.04 "Hg

Humidity: 94%

Dew point: 66 °F

Location of VitóriaLocation

Historic Weather in Vitória — Graph

°F

Vitória temperature yesterday

Maximum temperature yesterday: 84 °F (at 1:00 PM)
Minimum temperature yesterday: 72 °F (at 5:00 AM)
Average temperature yesterday: 76 °F

Past Weeks' High & Low Weather Summary

 TemperatureHumidityPressure
High88 °F (Dec 19, 4:00 PM)100% (Dec 17, 6:00 AM)30.15 "Hg (Dec 17, 6:00 AM)
Low61 °F (Dec 17, 6:00 AM)29% (Dec 17, 5:00 PM)29.86 "Hg (Dec 13, 5:00 PM)
Average74 °F68%30.02 "Hg
* Reported Dec 6 6:00 AM — Dec 21 6:00 AM, Vitória, Weather by CustomWeather, © 2014

Note: Actual official high and low records may vary slightly from our data, if they occured in-between our weather recording intervals... More about our weather records

Advertising

Vitória weather history for previous 24 hours

 ConditionsComfort  
Time TempWeatherWind HumidityBarometerVisibility
6:00 AM
Dec 21
70 °FFog.9 mph88%30.04 "Hg1 mi
5:00 AM70 °FPassing clouds.7 mph88%30.01 "HgN/A
4:00 AM70 °FPassing clouds.9 mph88%30.01 "HgN/A
3:00 AM70 °FLight rain. Fog.7 mph88%30.01 "Hg2 mi
2:00 AM72 °FPassing clouds.3 mph73%30.01 "HgN/A
1:00 AM72 °FPassing clouds.2 mph73%30.01 "HgN/A
12:00 AM73 °FPassing clouds.3 mph69%30.04 "HgN/A
11:00 PM
Dec 20
72 °FPassing clouds.8 mph73%30.04 "HgN/A
10:00 PM73 °FPassing clouds.5 mph69%30.01 "HgN/A
9:00 PM73 °FPassing clouds.9 mph69%29.98 "HgN/A
8:00 PM77 °FScattered clouds.6 mph69%29.98 "HgN/A
7:00 PM79 °FScattered clouds.3 mph61%29.95 "HgN/A
6:00 PM81 °FScattered clouds.8 mph58%29.95 "HgN/A
5:00 PM81 °FBroken clouds.10 mph62%29.95 "HgN/A
4:00 PM81 °FBroken clouds.9 mph62%29.95 "HgN/A
3:00 PM79 °FPartly sunny.6 mph65%29.98 "HgN/A
2:00 PM82 °FPartly sunny.9 mph51%29.98 "HgN/A
1:00 PM84 °FPartly sunny.13 mph51%30.01 "HgN/A
12:00 PM82 °FPartly sunny.9 mph55%30.04 "HgN/A
11:00 AM81 °FPartly sunny.9 mph58%30.04 "HgN/A
10:00 AM79 °FScattered clouds.7 mph61%30.04 "HgN/A
9:00 AM75 °FSunny.8 mph69%30.04 "Hg10 mi
8:00 AM73 °FSunny.8 mph74%30.01 "Hg10 mi
7:00 AM72 °FPassing clouds.3 mph78%29.98 "HgN/A
Weather by CustomWeather, © 2014

See weather overviewHow to use our weather pages